Location: SFA Observatory
(31.7598°N, 94.6613°W)
Time: 04:03:18
(UTC-06:00)

N. Korean satellite - Visible Passes

Search period start: 23 January 2018 00:00
Search period end: 02 February 2018 00:00
Orbit: 458 x 515 km, 97.2° (Epoch: 22 January)

Date Brightness Start Highest point End Pass type
(mag) Time Alt. Az. Time Alt. Az. Time Alt. Az.
23 Jan 9.6 06:15:13 10° NE 06:17:47 19° E 06:20:21 10° SE visible
23 Jan 6.5 18:18:51 10° SSE 18:22:27 83° ENE 18:26:00 10° N visible
25 Jan 9.5 19:05:59 10° SW 19:08:38 19° W 19:11:16 10° NW visible
26 Jan 8.0 06:36:59 10° NNE 06:40:17 42° E 06:43:37 10° S visible
26 Jan 7.9 18:41:30 10° S 18:44:54 42° W 18:48:16 10° NNW visible
27 Jan 9.6 06:14:00 10° NE 06:16:33 19° E 06:19:07 10° SE visible
27 Jan 6.4 18:17:41 10° SSE 18:21:14 80° E 18:24:45 10° N visible
29 Jan 9.5 19:04:45 10° SW 19:07:23 20° W 19:10:01 10° NW visible
30 Jan 8.1 06:35:43 10° NNE 06:39:03 41° E 06:42:23 10° S visible
30 Jan 7.9 18:40:17 10° S 18:43:39 43° W 18:46:59 10° NNW visible
31 Jan 9.7 06:12:45 10° NE 06:15:17 19° E 06:17:51 10° SE visible
31 Jan 6.4 18:16:28 10° SSE 18:19:58 77° ENE 18:23:27 10° N visible
